When you browse on this site, cookies collect data to enhance your experience and personalize the content and advertising you see.
Visit our Privacy Policy to learn more. By continuing to use the site, you agree to this use of cookies and data.
  • en Suisse
  • Liste des pays
  • À 7 jours
  • Température de l'eau
  • Carte satellitaire
  • Carte météo
  • Widgets météo
  • user-avatar
    Se connecter

    Météo par heure à Sligo

    Ce jour, 14 Décembre, Vendredi

    Heure Température Précipitation Vent Pression Humidité
    00:00 +4°C° 0.2 mm 7 m/s 758 mmHg 91%
    01:00 +4°C° 0.2 mm 7 m/s 758 mmHg 91%
    02:00 +4°C° 0.2 mm 7 m/s 758 mmHg 91%
    03:00 +4°C° 0.1 mm 7 m/s 758 mmHg 91%
    04:00 +4°C° 0.1 mm 8 m/s 757 mmHg 90%
    05:00 +4°C° 0.1 mm 8 m/s 757 mmHg 90%
    06:00 +4°C° 0.1 mm 8 m/s 757 mmHg 90%
    07:00 +4°C° 0.1 mm 8 m/s 757 mmHg 90%
    08:00 +5°C° 0.1 mm 8 m/s 756 mmHg 90%
    09:00 +5°C° 0.1 mm 8 m/s 756 mmHg 89%
    10:00 +5°C° 0.1 mm 8 m/s 756 mmHg 89%
    11:00 +6°C° 0.1 mm 9 m/s 756 mmHg 88%
    12:00 +6°C° 0.4 mm 9 m/s 755 mmHg 89%
    13:00 +6°C° 0.4 mm 9 m/s 755 mmHg 89%
    14:00 +6°C° 0.4 mm 9 m/s 755 mmHg 89%
    15:00 +6°C° 0.1 mm 9 m/s 754 mmHg 90%
    16:00 +6°C° 0.1 mm 8 m/s 754 mmHg 90%
    17:00 +6°C° 0.1 mm 8 m/s 754 mmHg 90%
    18:00 +6°C° 0.1 mm 8 m/s 754 mmHg 90%
    19:00 +6°C° 0.1 mm 7 m/s 754 mmHg 91%
    20:00 +8°C° 0.1 mm 7 m/s 754 mmHg 91%
    21:00 +8°C° 0.3 mm 7 m/s 753 mmHg 91%
    22:00 +8°C° 0.3 mm 7 m/s 752 mmHg 92%
    23:00 +8°C° 0.3 mm 7 m/s 752 mmHg 92%

    Demain, 15 Décembre, Samedi

    Heure Température Précipitation Vent Pression Humidité
    00:00 +8°C° 1.6 mm 7 m/s 751 mmHg 92%
    01:00 +7°C° 1.6 mm 8 m/s 749 mmHg 92%
    02:00 +7°C° 1.6 mm 9 m/s 748 mmHg 91%
    03:00 +8°C° 3.4 mm 9 m/s 747 mmHg 91%
    04:00 +8°C° 3.4 mm 9 m/s 746 mmHg 90%
    05:00 +10°C° 3.4 mm 9 m/s 745 mmHg 89%
    06:00 +10°C° 0.9 mm 9 m/s 744 mmHg 90%
    07:00 +10°C° 0.9 mm 8 m/s 743 mmHg 91%
    08:00 +10°C° 0.9 mm 7 m/s 742 mmHg 92%
    09:00 +10°C° 2.6 mm 7 m/s 741 mmHg 92%
    10:00 +10°C° 2.6 mm 7 m/s 739 mmHg 92%
    11:00 +10°C° 2.6 mm 7 m/s 738 mmHg 92%
    12:00 +9°C° 1.9 mm 8 m/s 738 mmHg 91%
    13:00 +7°C° 1.9 mm 9 m/s 738 mmHg 90%
    14:00 +7°C° 1.9 mm 10 m/s 737 mmHg 89%
    15:00 +6°C° 0.5 mm 9 m/s 738 mmHg 87%
    16:00 +5°C° 0.5 mm 8 m/s 739 mmHg 85%
    17:00 +4°C° 0.5 mm 7 m/s 740 mmHg 83%
    18:00 +4°C° 0.1 mm 7 m/s 741 mmHg 82%
    19:00 +4°C° 0.1 mm 7 m/s 742 mmHg 82%
    20:00 +4°C° 0.1 mm 7 m/s 743 mmHg 81%
    21:00 +4°C° 0 mm 6 m/s 743 mmHg 82%
    22:00 +3°C° 0 mm 6 m/s 744 mmHg 83%
    23:00 +3°C° 0 mm 6 m/s 744 mmHg 85%

    Après-demain, 16 Décembre, Dimanche

    Heure Température Précipitation Vent Pression Humidité
    00:00 +3°C° 0 mm 6 m/s 744 mmHg 85%
    01:00 +2°C° 0 mm 6 m/s 744 mmHg 86%
    02:00 +2°C° 0 mm 5 m/s 744 mmHg 87%
    03:00 +2°C° 0.1 mm 5 m/s 744 mmHg 87%
    04:00 +2°C° 0.1 mm 5 m/s 744 mmHg 88%
    05:00 +2°C° 0.1 mm 5 m/s 744 mmHg 88%
    06:00 +2°C° 0 mm 5 m/s 745 mmHg 89%
    07:00 +2°C° 0 mm 5 m/s 745 mmHg 89%
    08:00 +2°C° 0 mm 5 m/s 745 mmHg 90%
    09:00 +3°C° 0 mm 6 m/s 745 mmHg 87%
    10:00 +3°C° 0 mm 6 m/s 745 mmHg 84%
    11:00 +4°C° 0 mm 6 m/s 746 mmHg 82%
    12:00 +4°C° 0.2 mm 6 m/s 746 mmHg 82%
    13:00 +4°C° 0.2 mm 6 m/s 746 mmHg 81%
    14:00 +4°C° 0.2 mm 6 m/s 746 mmHg 81%
    15:00 +4°C° 0.2 mm 6 m/s 746 mmHg 83%
    16:00 +5°C° 0.2 mm 5 m/s 747 mmHg 85%
    17:00 +3°C° 0.2 mm 5 m/s 747 mmHg 88%
    18:00 +3°C° 0.2 mm 5 m/s 748 mmHg 88%
    19:00 +3°C° 0.2 mm 5 m/s 748 mmHg 89%
    20:00 +3°C° 0.2 mm 5 m/s 749 mmHg 90%
    21:00 +3°C° 0 mm 5 m/s 749 mmHg 90%
    22:00 +2°C° 0 mm 5 m/s 750 mmHg 91%
    23:00 +2°C° 0 mm 5 m/s 750 mmHg 91%

    17 Décembre, Lundi

    Heure Température Précipitation Vent Pression Humidité
    00:00 +2°C° 0 mm 5 m/s 750 mmHg 91%
    01:00 +2°C° 0 mm 5 m/s 750 mmHg 91%
    02:00 +2°C° 0 mm 5 m/s 751 mmHg 91%
    03:00 +2°C° 0 mm 5 m/s 750 mmHg 92%
    04:00 +2°C° 0 mm 5 m/s 750 mmHg 92%
    05:00 +2°C° 0 mm 5 m/s 750 mmHg 93%
    06:00 +2°C° 0 mm 6 m/s 750 mmHg 91%
    07:00 +3°C° 0 mm 7 m/s 749 mmHg 90%
    08:00 +2°C° 0 mm 8 m/s 749 mmHg 89%
    09:00 +3°C° 0.1 mm 9 m/s 748 mmHg 87%
    10:00 +6°C° 0.1 mm 10 m/s 747 mmHg 85%
    11:00 +7°C° 0.1 mm 11 m/s 746 mmHg 84%
    12:00 +7°C° 0.7 mm 11 m/s 744 mmHg 84%
    13:00 +8°C° 0.7 mm 12 m/s 743 mmHg 85%
    14:00 +8°C° 0.7 mm 12 m/s 742 mmHg 85%
    15:00 +8°C° 2.9 mm 11 m/s 742 mmHg 87%
    16:00 +7°C° 2.9 mm 9 m/s 741 mmHg 89%
    17:00 +6°C° 2.9 mm 7 m/s 741 mmHg 90%
    18:00 +6°C° 0.8 mm 7 m/s 741 mmHg 90%
    19:00 +5°C° 0.8 mm 7 m/s 741 mmHg 89%
    20:00 +5°C° 0.8 mm 7 m/s 741 mmHg 88%
    21:00 +5°C° 0.1 mm 7 m/s 741 mmHg 89%
    22:00 +5°C° 0.1 mm 7 m/s 740 mmHg 90%
    23:00 +5°C° 0.1 mm 7 m/s 740 mmHg 90%

    18 Décembre, Mardi

    Heure Température Précipitation Vent Pression Humidité
    00:00 +4°C° 0.2 mm 6 m/s 740 mmHg 92%
    01:00 +4°C° 0.2 mm 6 m/s 739 mmHg 93%
    02:00 +4°C° 0.2 mm 6 m/s 739 mmHg 94%
    03:00 +5°C° 0.7 mm 5 m/s 738 mmHg 95%
    04:00 +4°C° 0.7 mm 4 m/s 737 mmHg 96%
    05:00 +4°C° 0.7 mm 3 m/s 736 mmHg 97%
    06:00 +4°C° 0.4 mm 3 m/s 736 mmHg 96%
    07:00 +5°C° 0.4 mm 4 m/s 736 mmHg 95%
    08:00 +5°C° 0.4 mm 4 m/s 736 mmHg 94%
    09:00 +5°C° 0.1 mm 4 m/s 737 mmHg 92%
    10:00 +6°C° 0.1 mm 5 m/s 737 mmHg 89%
    11:00 +6°C° 0.1 mm 5 m/s 738 mmHg 87%
    12:00 +6°C° 0.2 mm 5 m/s 738 mmHg 86%
    13:00 +6°C° 0.2 mm 5 m/s 738 mmHg 86%
    14:00 +6°C° 0.2 mm 5 m/s 739 mmHg 85%
    15:00 +5°C° 0 mm 5 m/s 739 mmHg 86%
    16:00 +5°C° 0 mm 5 m/s 739 mmHg 87%
    17:00 +3°C° 0 mm 5 m/s 739 mmHg 89%
    18:00 +3°C° 0 mm 6 m/s 740 mmHg 88%
    19:00 +3°C° 0 mm 6 m/s 740 mmHg 87%
    20:00 +3°C° 0 mm 6 m/s 740 mmHg 86%
    21:00 +3°C° 0.1 mm 7 m/s 740 mmHg 86%
    22:00 +3°C° 0.1 mm 7 m/s 740 mmHg 86%
    23:00 +3°C° 0.1 mm 7 m/s 740 mmHg 86%

    19 Décembre, Mercredi

    Heure Température Précipitation Vent Pression Humidité
    00:00 +3°C° 0 mm 7 m/s 740 mmHg 86%
    01:00 +3°C° 0 mm 7 m/s 740 mmHg 86%
    02:00 +3°C° 0 mm 7 m/s 740 mmHg 86%
    03:00 +2°C° 0.4 mm 8 m/s 739 mmHg 86%
    04:00 +2°C° 0.4 mm 8 m/s 739 mmHg 86%
    05:00 +2°C° 0.4 mm 8 m/s 738 mmHg 87%
    06:00 +2°C° 0.4 mm 8 m/s 738 mmHg 86%
    07:00 +4°C° 0.4 mm 8 m/s 738 mmHg 86%
    08:00 +4°C° 0.4 mm 8 m/s 738 mmHg 86%
    09:00 +4°C° 0.3 mm 8 m/s 738 mmHg 85%
    10:00 +5°C° 0.3 mm 7 m/s 737 mmHg 85%
    11:00 +5°C° 0.3 mm 7 m/s 737 mmHg 85%
    12:00 +5°C° 0.5 mm 7 m/s 737 mmHg 85%
    13:00 +5°C° 0.5 mm 7 m/s 737 mmHg 85%
    14:00 +5°C° 0.5 mm 7 m/s 736 mmHg 86%
    15:00 +5°C° 0.5 mm 7 m/s 736 mmHg 86%
    16:00 +5°C° 0.5 mm 7 m/s 736 mmHg 86%
    17:00 +5°C° 0.5 mm 6 m/s 736 mmHg 86%
    18:00 +5°C° 0.5 mm 6 m/s 736 mmHg 86%
    19:00 +4°C° 0.5 mm 6 m/s 736 mmHg 86%
    20:00 +4°C° 0.5 mm 6 m/s 736 mmHg 86%
    21:00 +4°C° 0.6 mm 6 m/s 736 mmHg 87%
    22:00 +4°C° 0.6 mm 6 m/s 736 mmHg 88%
    23:00 +5°C° 0.6 mm 6 m/s 736 mmHg 88%
    Voir plus